[[{"header":{"parameterUnit":"m.s-1","parameterCategory":1,"la1":30.2991,"la2":30.254,"lo1":-89.0895,"lo2":-89.0444,"dy":0.0017,"dx":0.0017,"nx":28,"ny":28,"refTime":"2023-10-28T09:00:00:Z","depth":0,"parameterNumber":2,"parameterNumberName":"U-component_of_WINDS"},"data":[0,0,0,0,0,0,0,0,0,0,0,0,0,0,0,0,0,0,0,0,0,0,0,0,0,0,0,0,0,0,0,0,0,0,0,0,0,0,0,0,0,0,0,0,0,0,0,0,0,0,0,0,0,0,0,0,0,0,0.6977,0.6977,0,0.6998,0.6999,0.6999,0.6984,0.6983,0.6983,0.6982,0.7003,0.7004,0.7005,0,0,0,0,0,0,0,0,0,0,0,0,0,0.6923,0.6924,0.6977,0.6977,0.6978,0.6998,0.6999,0.6999,0.6984,0.6983,0.6982,0.6982,0.7002,0.7004,0.7005,0,0,0,0,0,0,0,0,0,0,0,0,0,0.6945,0.6924,0.6977,0.6973,0.6973,0.6998,0.6999,0.6999,0.6984,0.6983,0.6982,0.6981,0.7002,0.7003,0.7005,0.7036,0,0,0.701,0.7011,0,0,0,0,0,0,0,0,0.6944,0.6947,0.6973,0.6973,0.6973,0.6988,0.6987,0.7011,0.6984,0.698,0.6982,0.6981,0.6998,0.7,0.7006,0.7037,0.7038,0.7011,0.7012,0.7012,0.7013,0,0,0,0,0,0,0,0.6942,0.6946,0.6986,0.6974,0.6973,0.6969,0.6972,0.6992,0.6994,0.698,0.6979,0.6982,0.6998,0.7005,0.7007,0.7038,0.7011,0.7012,0.7013,0.7014,0.7095,0.7096,0,0,0,0,0,0,0.6941,0.6945,0.6985,0.6986,0.6956,0.6971,0.6974,0.6984,0.6994,0.6995,0.6983,0.6981,0.7002,0.7005,0.7007,0.7044,0.7012,0.7014,0.7015,0.7093,0.7095,0.7096,0,0,0,0,0,0,0.694,0.6945,0.6984,0.6965,0.697,0.6973,0.6985,0.6985,0.6991,0.6996,0.6996,0.6989,0.7002,0.7005,0.7029,0.7044,0.7015,0.7016,0.7092,0.7094,0.7095,0.7117,0,0,0,0,0,0,0.6939,0.6945,0.6957,0.6966,0.6971,0.7006,0.6986,0.6986,0.6995,0.6993,0.7002,0.7003,0.7001,0.7026,0.7031,0.7046,0.7018,0.7091,0.7093,0.7095,0.7115,0.7119,0.7123,0,0,0,0,0,0.6937,0.6962,0.6958,0.6962,0.6986,0.7007,0.701,0.7007,0.6996,0.7008,0.7011,0.7002,0.7042,0.7029,0.7034,0.705,0.709,0.7092,0.7095,0.7113,0.7118,0.7123,0,0,0,0,0,0,0.6954,0.6963,0.6958,0.6987,0.6996,0.7004,0.7019,0.7013,0.7025,0.7023,0.702,0.7022,0.7047,0.7051,0.7036,0.708,0.7064,0.7068,0.7076,0.7081,0.7085,0.7083,0.7019,0,0,0,0,0,0.6961,0.6978,0.6984,0.7009,0.7014,0.7016,0.7024,0.7022,0.7031,0.7035,0.704,0.7049,0.7063,0.7073,0.7086,0.7116,0.7117,0.7129,0.7133,0.7136,0.7139,0.7154,0.716,0.7104,0.7104,0.7104,0,0,0.6976,0.6983,0.6993,0.7013,0.7019,0.7036,0.7019,0.7037,0.7049,0.7038,0.706,0.7064,0.7074,0.7101,0.7113,0.7105,0.7155,0.7139,0.7142,0.7143,0.7158,0.7163,0.7167,0.7106,0.7105,0.7105,0,0,0.7012,0.7019,0.704,0.7047,0.7058,0.7059,0.7064,0.7073,0.7075,0.7098,0.709,0.7104,0.7129,0.7136,0.7143,0.7182,0.7174,0.7186,0.7207,0.7222,0.7226,0.723,0.7243,0.7248,0.7189,0.7189,0.7189,0,0.7029,0.7053,0.7051,0.707,0.7079,0.707,0.7091,0.7098,0.7112,0.7118,0.7109,0.714,0.7146,0.7174,0.7184,0.719,0.7195,0.7185,0.7226,0.7229,0.7233,0.7245,0.725,0.7191,0.719,0.719,0.719,0,0.7073,0.7091,0.7106,0.7121,0.7131,0.7151,0.7152,0.7163,0.7159,0.7161,0.7185,0.7192,0.7206,0.7213,0.721,0.724,0.7235,0.7226,0.721,0.724,0.7251,0.7256,0.7192,0.7192,0.7192,0.7191,0,0,0.712,0.7133,0.7139,0.7145,0.7157,0.717,0.7189,0.7204,0.7213,0.7223,0.7239,0.7261,0.7252,0.726,0.7258,0.7271,0.73,0.726,0.726,0.7267,0.7334,0.734,0.7346,0.7296,0.7297,0.7298,0.7333,0,0.7155,0.7189,0.7188,0.722,0.7235,0.7227,0.7244,0.7252,0.7255,0.7268,0.7271,0.7286,0.7274,0.7278,0.7291,0.7294,0.7314,0.7292,0.731,0.731,0.7307,0.7352,0.7358,0.7391,0.7337,0.7338,0.7339,0,0.7201,0.7213,0.7246,0.7255,0.7262,0.7277,0.729,0.7303,0.7313,0.7314,0.7323,0.7318,0.7337,0.7321,0.7347,0.7332,0.7339,0.7342,0.7343,0.7344,0.7326,0.7353,0.7402,0.7407,0.7346,0.7345,0.7345,0,0.723,0.7255,0.7278,0.7284,0.7295,0.7306,0.7311,0.732,0.7329,0.734,0.7346,0.736,0.7367,0.7377,0.7376,0.7365,0.7402,0.7386,0.7403,0.7403,0.741,0.741,0.746,0.7417,0.7417,0.7416,0.7416,0,0.727,0.729,0.7292,0.7306,0.7328,0.7327,0.7349,0.7353,0.7361,0.7375,0.7369,0.7382,0.7381,0.7394,0.7394,0.7415,0.7418,0.7419,0.7419,0.7419,0.7419,0.7423,0.7421,0.7418,0.7417,0.7417,0.7417,0,0.7306,0.7308,0.7332,0.7341,0.7344,0.736,0.7368,0.7381,0.7383,0.7401,0.7405,0.7408,0.7424,0.7424,0.7442,0.7441,0.7467,0.7464,0.7464,0.7463,0.7479,0.7477,0.7534,0.7541,0.7493,0.7494,0.7494,0,0.733,0.7346,0.7357,0.7366,0.7372,0.7387,0.7396,0.7396,0.7405,0.7417,0.7429,0.7444,0.7456,0.7481,0.7484,0.7498,0.7495,0.7514,0.7497,0.7497,0.7494,0.7493,0.7494,0.7516,0.7517,0.7517,0.7518,0,0.7373,0.7374,0.7387,0.7402,0.7413,0.7424,0.7434,0.7442,0.7442,0.7453,0.7469,0.7479,0.7497,0.7512,0.7525,0.7529,0.7523,0.7523,0.7528,0.7528,0.7527,0.7527,0.7472,0.7522,0.7521,0.7521,0.7521,0.7521,0.7404,0.7417,0.7427,0.7442,0.745,0.746,0.7472,0.7476,0.749,0.7505,0.7504,0.7521,0.753,0.7547,0.7553,0.7566,0.756,0.7566,0.7568,0.7569,0.7571,0.7526,0.7569,0.7569,0.7569,0.7569,0.7568,0,0.7446,0.7452,0.7466,0.7481,0.7493,0.7487,0.7498,0.7508,0.7524,0.7533,0.7545,0.7563,0.7578,0.7583,0.7596,0.7606,0.7604,0.761,0.7608,0.7609,0.7576,0.7571,0.7611,0.7611,0.7611,0.7611,0.7611,0.7611,0.7469,0.7491,0.7493,0.7518,0.7524,0.7542,0.7548,0.7557,0.7564,0.7585,0.7597,0.7601,0.7608,0.7622,0.7635,0.7636,0.7641,0.7648,0.7647,0.7616,0.7612,0.7608,0.7602,0.7649,0.7649,0.7679,0.768,0.768]},{"header":{"parameterUnit":"m.s-1","parameterCategory":1,"la1":30.2991,"la2":30.254,"lo1":-89.0895,"lo2":-89.0444,"dy":0.0017,"dx":0.0017,"nx":28,"ny":28,"refTime":"2023-10-28T09:00:00:Z","depth":0,"parameterNumber":3,"parameterNumberName":"V-component_of_WINDS"},"data":[0,0,0,0,0,0,0,0,0,0,0,0,0,0,0,0,0,0,0,0,0,0,0,0,0,0,0,0,0,0,0,0,0,0,0,0,0,0,0,0,0,0,0,0,0,0,0,0,0,0,0,0,0,0,0,0,0,0,-0.3575,-0.3575,0,-0.3536,-0.3535,-0.3535,-0.3543,-0.3544,-0.3545,-0.3546,-0.3501,-0.35,-0.3498,0,0,0,0,0,0,0,0,0,0,0,0,0,-0.3654,-0.3653,-0.3575,-0.3575,-0.3574,-0.3536,-0.3535,-0.3535,-0.3543,-0.3544,-0.3545,-0.3546,-0.3502,-0.35,-0.3498,0,0,0,0,0,0,0,0,0,0,0,0,0,-0.3618,-0.3652,-0.3575,-0.3574,-0.3574,-0.3536,-0.3535,-0.3534,-0.3543,-0.3544,-0.3545,-0.3546,-0.3503,-0.35,-0.3497,-0.3457,0,0,-0.3489,-0.3487,0,0,0,0,0,0,0,0,-0.362,-0.3615,-0.3575,-0.3574,-0.3573,-0.3546,-0.3547,-0.3508,-0.3543,-0.3555,-0.3546,-0.3547,-0.3515,-0.3511,-0.3501,-0.3455,-0.3453,-0.3488,-0.3487,-0.3486,-0.3485,0,0,0,0,0,0,0,-0.3622,-0.3616,-0.3559,-0.3574,-0.3573,-0.3574,-0.357,-0.3539,-0.3529,-0.3554,-0.3554,-0.355,-0.3515,-0.3504,-0.35,-0.3453,-0.3489,-0.3486,-0.3484,-0.3483,-0.3369,-0.3368,0,0,0,0,0,0,-0.3626,-0.3618,-0.3561,-0.3558,-0.36,-0.3572,-0.3567,-0.3553,-0.3529,-0.3527,-0.3549,-0.355,-0.3508,-0.3504,-0.3499,-0.3448,-0.3486,-0.3483,-0.3481,-0.337,-0.3369,-0.3367,0,0,0,0,0,0,-0.3627,-0.3621,-0.3562,-0.3588,-0.3581,-0.3569,-0.3553,-0.3552,-0.3541,-0.3525,-0.3523,-0.354,-0.3509,-0.3503,-0.3467,-0.3447,-0.3482,-0.3479,-0.3372,-0.337,-0.3368,-0.3348,0,0,0,0,0,0,-0.363,-0.3621,-0.3607,-0.3588,-0.358,-0.3533,-0.3552,-0.355,-0.3537,-0.3538,-0.3516,-0.3514,-0.3509,-0.3471,-0.3464,-0.3444,-0.3477,-0.3373,-0.3371,-0.3368,-0.3351,-0.3346,-0.3342,0,0,0,0,0,-0.3632,-0.3603,-0.3606,-0.3599,-0.3562,-0.3532,-0.3527,-0.3523,-0.3535,-0.352,-0.3509,-0.3515,-0.3451,-0.3468,-0.346,-0.3438,-0.3375,-0.3372,-0.3369,-0.3353,-0.3347,-0.3342,0,0,0,0,0,0,-0.3619,-0.3601,-0.3604,-0.3568,-0.3551,-0.3533,-0.3514,-0.3517,-0.3496,-0.3498,-0.3494,-0.3489,-0.3452,-0.3442,-0.3461,-0.3397,-0.3414,-0.3409,-0.3405,-0.3399,-0.3395,-0.3397,-0.3475,0,0,0,0,0,-0.3612,-0.359,-0.3575,-0.3544,-0.3536,-0.3526,-0.3513,-0.3511,-0.3494,-0.3486,-0.3474,-0.3455,-0.343,-0.3414,-0.3391,-0.335,-0.3344,-0.3331,-0.3326,-0.3323,-0.3318,-0.3293,-0.3286,-0.3357,-0.3357,-0.3357,0,0,-0.3597,-0.3584,-0.357,-0.3541,-0.3528,-0.3504,-0.352,-0.3495,-0.3476,-0.3482,-0.3448,-0.3437,-0.3416,-0.3377,-0.3359,-0.3367,-0.3297,-0.3319,-0.3316,-0.3313,-0.3289,-0.3282,-0.3276,-0.3355,-0.3355,-0.3356,0,0,-0.3557,-0.3546,-0.3518,-0.3505,-0.3485,-0.3479,-0.3472,-0.3453,-0.3447,-0.3412,-0.3416,-0.3393,-0.3351,-0.3335,-0.3322,-0.3274,-0.3277,-0.3266,-0.3242,-0.3218,-0.3212,-0.3207,-0.3188,-0.3181,-0.3262,-0.3262,-0.3262,0,-0.354,-0.3505,-0.3503,-0.3476,-0.3462,-0.3468,-0.3438,-0.3425,-0.3398,-0.3388,-0.3398,-0.3344,-0.3331,-0.3286,-0.3275,-0.3264,-0.3254,-0.3268,-0.3214,-0.3209,-0.3204,-0.3185,-0.3178,-0.3261,-0.3261,-0.3261,-0.3261,0,-0.3484,-0.346,-0.344,-0.3414,-0.3398,-0.337,-0.3362,-0.3346,-0.3345,-0.3337,-0.33,-0.3284,-0.3256,-0.3246,-0.3246,-0.3201,-0.3206,-0.3215,-0.3232,-0.3196,-0.3178,-0.3171,-0.3259,-0.3259,-0.326,-0.326,0,0,-0.3435,-0.3408,-0.34,-0.3388,-0.3366,-0.3346,-0.3317,-0.3291,-0.3276,-0.3257,-0.3232,-0.3196,-0.3203,-0.3188,-0.3185,-0.3164,-0.3124,-0.3174,-0.3174,-0.3164,-0.3071,-0.3064,-0.3056,-0.3126,-0.3125,-0.3124,-0.3072,0,-0.3391,-0.3342,-0.3339,-0.3293,-0.3269,-0.3273,-0.3248,-0.3231,-0.3222,-0.3199,-0.3189,-0.3163,-0.3176,-0.3166,-0.3145,-0.3133,-0.3105,-0.3137,-0.31,-0.3099,-0.3104,-0.3047,-0.3039,-0.2991,-0.3065,-0.3064,-0.3064,0,-0.3334,-0.3313,-0.3266,-0.3246,-0.3235,-0.3213,-0.3188,-0.3166,-0.3146,-0.3141,-0.3123,-0.3123,-0.3091,-0.311,-0.3065,-0.3087,-0.3072,-0.3063,-0.3061,-0.3056,-0.3078,-0.3039,-0.2976,-0.2968,-0.3053,-0.3054,-0.3055,0,-0.33,-0.3261,-0.3227,-0.3216,-0.3192,-0.3176,-0.3165,-0.3146,-0.3129,-0.3107,-0.3096,-0.307,-0.3055,-0.3033,-0.3025,-0.304,-0.298,-0.2999,-0.2973,-0.2973,-0.2959,-0.2959,-0.2891,-0.2952,-0.2952,-0.2952,-0.2952,0,-0.3251,-0.3221,-0.3211,-0.319,-0.3156,-0.3151,-0.3117,-0.3107,-0.3089,-0.3065,-0.3067,-0.3043,-0.3035,-0.3009,-0.3002,-0.2965,-0.2959,-0.2952,-0.295,-0.2951,-0.2951,-0.294,-0.2942,-0.295,-0.295,-0.2951,-0.2951,0,-0.3207,-0.3199,-0.3162,-0.3142,-0.3136,-0.3112,-0.3094,-0.3072,-0.3064,-0.3032,-0.3025,-0.3011,-0.2981,-0.2971,-0.2934,-0.293,-0.2885,-0.2887,-0.2892,-0.2892,-0.2865,-0.2867,-0.2786,-0.2774,-0.2844,-0.2843,-0.2843,0,-0.3175,-0.3152,-0.313,-0.3114,-0.3102,-0.3077,-0.306,-0.3055,-0.3037,-0.3011,-0.2992,-0.2962,-0.2938,-0.289,-0.2875,-0.2847,-0.2847,-0.282,-0.2842,-0.2843,-0.2844,-0.2845,-0.2841,-0.2815,-0.2815,-0.2814,-0.2814,0,-0.3119,-0.3116,-0.3093,-0.3067,-0.3048,-0.3028,-0.3008,-0.2994,-0.2985,-0.2965,-0.2935,-0.2916,-0.2878,-0.2848,-0.2819,-0.2805,-0.2807,-0.2807,-0.2799,-0.2799,-0.2802,-0.2798,-0.2879,-0.2809,-0.2809,-0.2809,-0.281,-0.281,-0.3079,-0.3058,-0.3039,-0.3012,-0.2996,-0.2978,-0.2956,-0.2945,-0.292,-0.2889,-0.2887,-0.2854,-0.2831,-0.2792,-0.2777,-0.275,-0.2757,-0.2746,-0.2743,-0.274,-0.2737,-0.2808,-0.2745,-0.2745,-0.2745,-0.2745,-0.2745,0,-0.3021,-0.3009,-0.2984,-0.2957,-0.2935,-0.294,-0.2918,-0.2899,-0.287,-0.285,-0.2826,-0.279,-0.276,-0.2743,-0.2713,-0.2694,-0.2693,-0.2686,-0.2686,-0.2682,-0.2733,-0.2742,-0.2686,-0.2686,-0.2686,-0.2686,-0.2686,-0.2686,-0.2989,-0.2953,-0.2947,-0.2903,-0.289,-0.2858,-0.2845,-0.2827,-0.281,-0.277,-0.2746,-0.2735,-0.2715,-0.2683,-0.2655,-0.2651,-0.2639,-0.263,-0.2626,-0.2673,-0.2679,-0.2685,-0.2693,-0.2628,-0.2628,-0.2577,-0.2577,-0.2576]}]]